Portada
METAR-TAF:

METAR-TAF

Aeropuertos :

Tajima, Japón

latitud: 35-31N, longitud: 134-48E, altitud: 210 m

Observación

El informe se hizo hace 31 minutos, a las 05:00 UTC
Viento 3 kt del sur-sureste, variando entre este y sur
Temperatura 25°C
Humedad 89%
Presión 1008 hPa
Visibilidad 10 km o más
Escasas nubes a una altura menor de 100 ft
Nubes dispersas a una altura de 1500 ft
Cielo nuboso a una altura de 3000 ft
chaparrones de lluvia

METAR: RJBT 100500Z 16003KT 100V190 9999 -SHRA FEW000 SCT015 BKN030 25/23 Q1008

Hora: 14:31 (05:31 UTC)


TAF: falta

Observaciones y pronósticos meteorológicos de más de 4000 aeropuertos (mensajes METAR y TAF).

Los puntos amarillos y rojos representan las estaciones disponibles.

Ponga el ratón en el punto deseado para ver el nombre de la estación.

Haga clic para ver las observaciones y los pronósticos meteorológicos.

Para cambiar el mapa : haga clic en los botones verdes con una cruz de color negro para hacer un zoom, en el botón verde con un guión para alejar o en las flechas verdes para mapas adyacentes.


METAR-TAF: